BEIDOU-2 G4 (C04)

Last updated on Wed Aug 26 2026 00:04:16 GMT+0000 (Coordinated Universal Time)

1 37210U 10057A 26237.43440972 -.00000114 00000+0 00000+0 0 9994 2 37210 3.8135 68.4663 0006710 177.6559 43.9964 1.00272357 57983
UTC large
Height (km)
Speed (km/s)
/
Latitude / Longitude
Inclination (degrees)
Orbital Period (minutes)
Azimuth
Elevation
Range (km)
Doppler Factor

Next 0 passes for location: London (51.5072 / 0.1276)

No passes found over London.
BEIDOU-2 G4 (C04)